Prague, Czech Republic

11:38 AM CET on January 16, 2018 (GMT +0100)
Ruzyne

Weather History for LKPR - June, 2014

Change the Weather History Date:

Monday, June 16, 2014

  Actual Average Record
Temperature  
Mean Temperature 56 °F -  
Max Temperature 70 °F 73 °F 88 °F (2012)
Min Temperature 42 °F 52 °F 42 °F (2014)
Degree Days  
Heating Degree Days 9    
Growing Degree Days 6 (Base 50)    
Moisture  
Dew Point 44 °F    
Average Humidity 58    
Maximum Humidity 93    
Minimum Humidity 27    
Precipitation  
Precipitation 0.00 in 0.09 in - ()
Sea Level Pressure  
Sea Level Pressure 30.08 in    
Wind  
Wind Speed 4 mph ()    
Max Wind Speed 9 mph    
Max Gust Speed -    
Visibility 6.2 miles    
Events      
Averages and records for this station are not official NWS values.
T = Trace of Precipitation, MM = Missing Value Source: Averaged Metar Reports

Daily Weather History Graph

Daily Weather History Graph

Search for Another Location

Airport or City:

Trip Planner

Search our weather history database for the weather conditions in past years. The results will help you decide how hot, cold, wet, or windy it might be!

Date:

Astronomy

Jun. 16, 2014 Rise Set
Actual Time 4:52 AM CEST 9:14 PM CEST
Civil Twilight 4:07 AM CEST 9:59 PM CEST
Nautical Twilight 3:02 AM CEST 11:05 PM CEST
Astronomical Twilight 1:35 AM CEST 12:31 AM CEST
Moon 11:30 PM CEST 8:55 AM CEST
Length of Visible Light 17h 51m
Length of Day
16h 22m
Waning Gibbous, 85% of the Moon is Illuminated
Jun 16
Waning Gibbous
Jun 19
Last Quarter
Jun 27
New
Jul 5
First Quarter
Jul 12
Full

Hourly Weather History & Observations

Time (CEST) Temp. Windchill Dew Point Humidity Pressure Visibility Wind Dir Wind Speed Gust Speed Precip Events Conditions
12:00 AM 51 °F - 43 °F 67% 30.16 in 37 mi NW 2.2 mph - -   Scattered Clouds
12:00 AM 50.0 °F - 42.8 °F 76% 30.12 in - NW 3.5 mph - N/A   Clear
12:30 AM 48.2 °F - 42.8 °F 82% 30.12 in - West 3.5 mph - N/A   Clear
1:00 AM 47 °F - 42 °F 77% 30.17 in 31 mi West 4.5 mph - -  
1:00 AM 46.4 °F 45.2 °F 42.8 °F 87% 30.12 in - West 3.5 mph - N/A   Clear
1:30 AM 46.4 °F 45.2 °F 42.8 °F 87% 30.12 in - West 3.5 mph - N/A   Clear
2:00 AM 45 °F - 41 °F 80% 30.17 in 31 mi West 4.5 mph - -   Scattered Clouds
2:00 AM 44.6 °F 43.1 °F 41.0 °F 87% 30.12 in - WSW 3.5 mph - N/A   Clear
2:30 AM 44.6 °F 43.1 °F 41.0 °F 87% 30.12 in - WSW 3.5 mph - N/A   Clear
3:00 AM 45 °F - 42 °F 84% 30.17 in 31 mi SW 4.5 mph - -   Scattered Clouds
3:00 AM 44.6 °F - 42.8 °F 93% 30.12 in - Variable 2.3 mph - N/A   Clear
3:30 AM 44.6 °F 42.2 °F 41.0 °F 87% 30.12 in - SW 4.6 mph - N/A   Clear
4:00 AM 44 °F - 40 °F 83% 30.16 in 31 mi WSW 4.5 mph - -   Scattered Clouds
4:00 AM 42.8 °F 40.1 °F 41.0 °F 93% 30.12 in - SW 4.6 mph - N/A   Clear
4:30 AM 42.8 °F 40.1 °F 41.0 °F 93% 30.12 in - SW 4.6 mph - N/A   Clear
5:00 AM 43 °F - 40 °F 87% 30.16 in 31 mi WSW 4.5 mph - -   Scattered Clouds
5:00 AM 42.8 °F 40.1 °F 41.0 °F 93% 30.12 in - SW 4.6 mph - N/A   Clear
5:30 AM 42.8 °F 40.1 °F 41.0 °F 93% 30.12 in - SW 4.6 mph - N/A   Clear
6:00 AM 44 °F - 41 °F 87% 30.15 in 31 mi WSW 6.7 mph - -   Scattered Clouds
6:00 AM 44.6 °F 43.1 °F 41.0 °F 87% 30.12 in - SW 3.5 mph - N/A   Clear
6:30 AM 50.0 °F - 44.6 °F 82% 30.12 in - WSW 4.6 mph - N/A   Clear
7:00 AM 53 °F - 47 °F 75% 30.12 in 31 mi WSW 4.5 mph - -   Scattered Clouds
7:00 AM 53.6 °F - 46.4 °F 77% 30.12 in - SW 3.5 mph - N/A   Clear
7:30 AM 57.2 °F - 48.2 °F 72% 30.09 in - Variable 2.3 mph - N/A   Clear
8:00 AM 60 °F - 45 °F 47% 30.11 in 37 mi NNW 4.5 mph - -   Scattered Clouds
8:00 AM 59.0 °F - 46.4 °F 63% 30.09 in - NNW 4.6 mph - N/A   Clear
8:30 AM 60.8 °F - 44.6 °F 55% 30.09 in - NW 4.6 mph - N/A   Clear
9:00 AM 62 °F - 45 °F 43% 30.10 in 37 mi NNW 2.2 mph - -   Scattered Clouds
9:00 AM 60.8 °F - 44.6 °F 55% 30.09 in 6.2 mi Variable 3.5 mph - N/A   Partly Cloudy
9:30 AM 64.4 °F - 44.6 °F 49% 30.09 in 6.2 mi NW 4.6 mph - N/A   Partly Cloudy
10:00 AM 64 °F - 44 °F 37% 30.09 in 44 mi North 4.5 mph - -   Scattered Clouds
10:00 AM 64.4 °F - 44.6 °F 49% 30.09 in 6.2 mi Variable 4.6 mph - N/A   Partly Cloudy
10:30 AM 64.4 °F - 42.8 °F 45% 30.09 in 6.2 mi Variable 4.6 mph - N/A   Scattered Clouds
11:00 AM 66 °F - 42 °F 29% 30.08 in 47 mi East 4.5 mph - -   Partly Cloudy
11:00 AM 66.2 °F - 41.0 °F 40% 30.09 in 6.2 mi Variable 4.6 mph - N/A   Scattered Clouds
11:30 AM 68.0 °F - 42.8 °F 40% 30.09 in - NNW 4.6 mph - N/A   Clear
12:00 PM 67 °F - 45 °F 33% 30.07 in 47 mi NW 8.9 mph - -   Scattered Clouds
12:00 PM 68.0 °F - 44.6 °F 43% 30.09 in - Variable 2.3 mph - N/A   Clear
12:30 PM 64.4 °F - 42.8 °F 45% 30.09 in - West 8.1 mph - N/A   Clear
1:00 PM 67 °F - 41 °F 27% 30.06 in 47 mi WSW 4.5 mph - -   Scattered Clouds
1:00 PM 66.2 °F - 41.0 °F 40% 30.06 in - WSW 5.8 mph - N/A   Clear
1:30 PM 68.0 °F - 44.6 °F 43% 30.06 in - WNW 9.2 mph - N/A   Clear
2:00 PM 69 °F - 44 °F 29% 30.04 in 47 mi WNW 4.5 mph - -   Scattered Clouds
2:00 PM 69.8 °F - 41.0 °F 35% 30.06 in - Variable 5.8 mph - N/A   Clear
2:30 PM 69.8 °F - 42.8 °F 38% 30.04 in - NNW 8.1 mph - N/A   Clear
3:00 PM 70 °F - 43 °F 27% 30.02 in 47 mi NNW 8.9 mph - -   Scattered Clouds
3:00 PM 69.8 °F - 42.8 °F 38% 30.04 in - WNW 9.2 mph - N/A   Clear
3:30 PM 68.0 °F - 42.8 °F 40% 30.04 in - West 5.8 mph - N/A   Clear
4:00 PM 68 °F - 42 °F 27% 30.01 in 47 mi WNW 4.5 mph - -   Scattered Clouds
4:00 PM 68.0 °F - 42.8 °F 40% 30.04 in - NNW 4.6 mph - N/A   Clear
4:30 PM 68.0 °F - 42.8 °F 40% 30.04 in - WNW 3.5 mph - N/A   Clear
5:00 PM 68 °F - 43 °F 28% 30.01 in 47 mi North 4.5 mph - -   Scattered Clouds
5:00 PM 68.0 °F - 42.8 °F 40% 30.04 in - NNW 5.8 mph - N/A   Clear
5:30 PM 66.2 °F - 44.6 °F 46% 30.04 in - North 4.6 mph - N/A   Clear
6:00 PM 67 °F - 44 °F 31% 30.01 in 47 mi NW 4.5 mph - -   Scattered Clouds
6:00 PM 66.2 °F - 42.8 °F 43% 30.04 in - NW 4.6 mph - N/A   Clear
6:30 PM 66.2 °F - 44.6 °F 46% 30.04 in - North 4.6 mph - N/A   Clear
7:00 PM 66 °F - 46 °F 38% 30.01 in 47 mi North 8.9 mph - -   Scattered Clouds
7:00 PM 66.2 °F - 44.6 °F 46% 30.04 in - North 5.8 mph - N/A   Clear
7:30 PM 64.4 °F - 44.6 °F 49% 30.04 in - NNE 4.6 mph - N/A   Clear
8:00 PM 64 °F - 46 °F 41% 30.01 in 47 mi North 6.7 mph - -   Scattered Clouds
8:00 PM 64.4 °F - 46.4 °F 52% 30.04 in - North 3.5 mph - N/A   Clear
8:30 PM 62.6 °F - 46.4 °F 55% 30.04 in - NNW 4.6 mph - N/A   Clear
9:00 PM 61 °F - 47 °F 50% 30.01 in 47 mi North 4.5 mph - -   Mostly Cloudy
9:00 PM 60.8 °F - 48.2 °F 63% 30.04 in - NNW 3.5 mph - N/A   Clear
10:00 PM 58 °F - 48 °F 59% 30.04 in 44 mi NNW 4.5 mph - -   Mostly Cloudy
10:00 PM 57.2 °F - 48.2 °F 72% 30.04 in - NNW 3.5 mph - N/A   Clear
10:30 PM 57.2 °F - 46.4 °F 67% 30.04 in - North 3.5 mph - N/A   Clear
11:00 PM 56 °F - 47 °F 63% 30.05 in 37 mi NNW 2.2 mph - -   Partly Cloudy
11:00 PM 55.4 °F - 46.4 °F 72% 30.04 in - Variable 2.3 mph - N/A   Clear
11:30 PM 55.4 °F - 46.4 °F 72% 30.04 in - NW 3.5 mph - N/A   Clear